Location: Newark
(43.9494°N, 6.8108°E)
Time: 16:46:16
(UTC+00:00)

Vanguard 2 Rocket - All Passes

Search period start: 15 October 2019 00:00
Search period end: 25 October 2019 00:00
Orbit: 554 x 3326 km, 32.9° (Epoch: 13 October)

Date Brightness Start Highest point End Pass type
(mag) Time Alt. Az. Time Alt. Az. Time Alt. Az.
15 Oct - 06:33:01 10° SSE 06:40:33 13° SE 06:48:19 10° ESE daylight
15 Oct - 08:38:38 10° SSW 08:55:20 36° SSE 09:11:00 10° E daylight
15 Oct - 10:52:33 10° WSW 11:11:50 54° S 11:26:36 10° E daylight
15 Oct - 13:10:04 10° W 13:28:11 54° S 13:39:52 10° ESE daylight
15 Oct - 15:29:24 10° W 15:42:19 32° SW 15:50:43 10° SSE daylight
16 Oct - 07:39:27 10° SSW 07:54:09 29° SE 08:09:07 10° E daylight
16 Oct - 09:51:23 10° SW 10:10:11 50° SSE 10:26:15 10° E daylight
16 Oct - 12:07:45 10° WSW 12:27:01 57° S 12:40:26 10° ESE daylight
16 Oct - 14:26:29 10° W 14:42:18 42° SSW 14:52:24 10° SE daylight
16 Oct - 16:48:05 10° W 16:54:43 15° SW 16:59:57 10° SSW daylight
17 Oct - 06:41:29 10° S 06:53:18 21° SE 07:05:59 10° E daylight
17 Oct - 08:50:55 10° SW 09:08:33 44° SSE 09:25:21 10° E daylight
17 Oct - 11:05:51 10° WSW 11:25:27 57° S 11:40:35 10° ESE daylight
17 Oct - 13:23:47 10° W 13:41:43 50° SSW 13:53:32 10° SE daylight
17 Oct - 15:43:50 10° W 15:55:21 25° SW 16:03:22 10° S daylight
18 Oct - 05:45:57 10° SSE 05:52:52 13° SE 06:00:17 10° ESE daylight
18 Oct - 07:51:12 10° SSW 08:07:08 37° SSE 08:23:50 10° E daylight
18 Oct - 10:04:29 10° WSW 10:23:40 55° SSE 10:40:16 10° E daylight
18 Oct - 12:21:23 10° W 12:40:37 56° S 12:54:13 10° ESE daylight
18 Oct - 14:40:31 10° W 14:55:29 35° SW 15:05:31 10° SSE daylight
19 Oct - 06:52:21 10° SSW 07:06:05 29° SE 07:21:28 10° E daylight
19 Oct - 09:03:44 10° SW 09:21:52 51° SSE 09:39:28 10° E daylight
19 Oct - 11:19:23 10° WSW 11:39:04 59° S 11:54:26 10° ESE daylight
19 Oct - 13:37:38 10° W 13:55:04 44° SSW 14:06:57 10° SE daylight
19 Oct - 15:59:01 10° W 16:08:09 18° SW 16:15:09 10° S daylight
20 Oct - 05:54:43 10° S 06:05:29 21° SE 06:17:52 10° E daylight
20 Oct - 08:03:40 10° SW 08:20:14 44° SSE 08:38:06 10° E daylight
20 Oct - 10:17:53 10° WSW 10:37:13 59° S 10:54:10 10° ESE daylight
20 Oct - 12:35:08 10° W 12:54:06 52° SSW 13:07:49 10° SE daylight
20 Oct - 14:54:53 10° W 15:08:27 28° SW 15:18:07 10° SSE daylight
21 Oct - 04:59:47 10° SSE 05:05:21 12° SE 05:11:27 10° ESE visible
21 Oct - 07:04:19 10° SSW 07:18:58 37° SE 07:36:06 10° E daylight
21 Oct - 09:16:57 10° WSW 09:35:18 56° SSE 09:53:25 10° E daylight
21 Oct - 11:33:04 10° W 11:52:37 57° S 12:08:09 10° ESE daylight
21 Oct - 13:51:40 10° W 14:08:12 37° SSW 14:19:59 10° SSE daylight
21 Oct - 16:16:27 10° WSW 16:20:46 12° SW 16:24:36 10° SW daylight
22 Oct - 06:05:49 10° S 06:18:10 28° SE 06:33:17 10° E daylight
22 Oct - 08:16:37 10° SW 08:33:29 51° SSE 08:52:08 10° E daylight
22 Oct - 10:31:29 10° WSW 10:50:48 59° S 11:07:57 10° ESE daylight
22 Oct - 12:49:01 10° W 13:07:24 46° SSW 13:21:07 10° SE daylight
22 Oct - 15:09:57 10° W 15:21:10 21° SW 15:29:52 10° S daylight
23 Oct - 05:08:31 10° S 05:17:53 19° SE 05:29:15 10° E visible
23 Oct - 07:16:56 10° SW 07:32:01 44° SSE 07:50:18 10° E daylight
23 Oct - 09:30:26 10° WSW 09:48:49 59° S 10:07:15 10° ESE daylight
23 Oct - 11:46:52 10° W 12:06:05 53° SSW 12:21:39 10° SE daylight
23 Oct - 14:06:02 10° W 14:21:07 30° SW 14:32:28 10° SSE daylight
24 Oct - 04:14:47 10° SE 04:18:05 11° SE 04:21:38 10° ESE visible
24 Oct - 06:17:57 10° SSW 06:31:00 36° SE 06:47:52 10° E daylight
24 Oct - 08:29:57 10° WSW 08:46:53 56° SSE 09:06:01 10° E daylight
24 Oct - 10:45:14 10° W 11:04:20 58° S 11:21:35 10° ESE daylight
24 Oct - 13:03:05 10° W 13:20:31 39° SSW 13:34:02 10° SSE daylight
24 Oct - 15:26:44 10° WSW 15:33:45 14° SW 15:39:49 10° SSW daylight
